TJS-6

Last updated on Sun Apr 12 2026 00:02:55 GMT+0000 (Coordinated Universal Time)

1 47613U 21010A 26101.48471515 .00000045 00000+0 00000+0 0 9997 2 47613 0.4267 88.9112 0003294 312.2745 151.5309 1.00270842 19146
UTC large
Height (km)
Speed (km/s)
/
Latitude / Longitude
Inclination (degrees)
Orbital Period (minutes)
Azimuth
Elevation
Range (km)
Doppler Factor

Next 0 passes for location: London (51.5072 / 0.1276)

Sorry there are no passes over London.
TJS-6